Resia Pass, Italy

9:49 PM CEST on May 25, 2018 (GMT +0200)
Resia Pass

Weather History for LIVE - January, 2013

Change the Weather History Date:

Friday, January 25, 2013

  Actual Average Record
Temperature  
Mean Temperature 19 °F -  
Max Temperature 24 °F 32 °F 48 °F (2016)
Min Temperature 14 °F 17 °F 1 °F (2006)
Degree Days  
Heating Degree Days 46    
Moisture  
Dew Point 8 °F    
Average Humidity 64    
Maximum Humidity 80    
Minimum Humidity 46    
Precipitation  
Precipitation 0.00 in - - ()
Sea Level Pressure  
Sea Level Pressure 29.65 in    
Wind  
Wind Speed 9 mph ()    
Max Wind Speed 13 mph    
Max Gust Speed 34 mph    
Averages and records for this station are not official NWS values.
T = Trace of Precipitation, MM = Missing Value Source: Averaged Metar Reports

Daily Weather History Graph

Daily Weather History Graph

Search for Another Location

Airport or City:

Astronomy

Jan. 25, 2013 Rise Set
Actual Time 7:50 AM CET 5:10 PM CET
Civil Twilight 7:17 AM CET 5:43 PM CET
Nautical Twilight 6:40 AM CET 6:20 PM CET
Astronomical Twilight 6:04 AM CET 6:56 PM CET
Moon 3:51 PM CET 6:20 AM CET
Length of Visible Light 10h 26m
Length of Day
9h 20m
Waxing Gibbous, 97% of the Moon is Illuminated
Jan 25
Waxing Gibbous
Jan 27
Full
Feb 3
Last Quarter
Feb 10
New
Feb 17
First Quarter

Hourly Weather History & Observations

Time (CET) Temp. Windchill Dew Point Humidity Pressure Visibility Wind Dir Wind Speed Gust Speed Precip Events Conditions
12:55 AM 19.4 °F 7.9 °F 14.0 °F 80% 29.56 in - NNE 10.4 mph 28.8 mph N/A   Clear
1:55 AM 19.4 °F 7.9 °F 14.0 °F 80% 29.56 in - North 10.4 mph 29.9 mph N/A   Clear
2:55 AM 19.4 °F 7.9 °F 14.0 °F 80% 29.56 in - NNE 10.4 mph 28.8 mph N/A   Clear
6:55 AM 17.6 °F 7.3 °F 12.2 °F 79% 29.65 in - NNE 8.1 mph 26.5 mph N/A   Clear
7:55 AM 17.6 °F 8.2 °F 10.4 °F 73% 29.65 in - NNE 6.9 mph 24.2 mph N/A   Clear
8:55 AM 17.6 °F 5.7 °F 10.4 °F 73% 29.68 in - NNE 10.4 mph 29.9 mph N/A   Clear
9:55 AM 19.4 °F 7.2 °F 10.4 °F 68% 29.68 in - North 11.5 mph 33.4 mph N/A   Clear
10:55 AM 23.0 °F 12.4 °F 10.4 °F 59% 29.68 in - NNE 10.4 mph 31.1 mph N/A   Clear
11:55 AM 23.0 °F 11.1 °F 8.6 °F 54% 29.68 in - North 12.7 mph 34.5 mph N/A   Clear
12:55 PM 24.8 °F 14.6 °F 8.6 °F 50% 29.65 in - North 10.4 mph 28.8 mph N/A   Clear
1:55 PM 24.8 °F 14.6 °F 8.6 °F 50% 29.65 in - North 10.4 mph 28.8 mph N/A   Clear
2:55 PM 24.8 °F 14.6 °F 6.8 °F 46% 29.65 in - NNE 10.4 mph 28.8 mph N/A   Clear
3:55 PM 21.2 °F 10.1 °F 5.0 °F 50% 29.65 in - NNE 10.4 mph 26.5 mph N/A   Clear
4:55 PM 19.4 °F 7.9 °F 5.0 °F 54% 29.65 in - NNE 10.4 mph 27.6 mph N/A   Clear
5:55 PM 17.6 °F 7.3 °F 5.0 °F 58% 29.65 in - NNE 8.1 mph 26.5 mph N/A   Clear
6:55 PM 17.6 °F 7.3 °F 6.8 °F 63% 29.68 in - NNE 8.1 mph - N/A   Clear
7:55 PM 15.8 °F 5.1 °F 5.0 °F 62% 29.68 in - NE 8.1 mph 23.0 mph N/A   Clear
8:55 PM 15.8 °F 4.2 °F 5.0 °F 62% 29.68 in - NNE 9.2 mph 21.9 mph N/A   Clear
9:55 PM 14.0 °F 1.2 °F 5.0 °F 67% 29.68 in - North 10.4 mph 28.8 mph N/A   Clear
10:55 PM 14.0 °F 2.0 °F 5.0 °F 67% 29.68 in - NNE 9.2 mph 23.0 mph N/A   Clear
11:55 PM 14.0 °F 2.9 °F 5.0 °F 67% 29.68 in - North 8.1 mph - N/A   Clear